This is the latest recevied weather packets stored in our database for station/object IZ3LSV-13. If no packets are shown the sender has not sent any weather packets the latest 10 day(s).
| Time | Temp. | Humidity | Pressure | Rain* | Wind** | Luminosity | Snow |
|---|---|---|---|---|---|---|---|
| 1788502348 | 27.22° C | - | 1114.4 hPa | 0 mm | - | - | - |
| 1788502043 | 27.22° C | - | 1114.3 hPa | 0 mm | - | - | - |
| 1788501739 | 26.67° C | - | 1114.3 hPa | 0 mm | - | - | - |
| 1788501432 | 26.67° C | - | 1114.4 hPa | 0 mm | - | - | - |
| 1788501127 | 26.67° C | - | 1114.3 hPa | 0 mm | - | - | - |
| 1788500821 | 26.67° C | - | 1114.2 hPa | 0 mm | - | - | - |
| 1788500516 | 26.67° C | - | 1114.2 hPa | 0 mm | - | - | - |
| 1788500210 | 26.67° C | - | 1114.1 hPa | 0 mm | - | - | - |
| 1788499905 | 26.67° C | - | 1114 hPa | 0 mm | - | - | - |
| 1788499600 | 26.67° C | - | 1114 hPa | 0 mm | - | - | - |
| 1788499294 | 26.67° C | - | 1113.9 hPa | 0 mm | - | - | - |
| 1788498989 | 26.11° C | - | 1113.9 hPa | 0 mm | - | - | - |
| 1788498683 | 25.56° C | - | 1113.9 hPa | 0 mm | - | - | - |
| 1788498378 | 25.56° C | - | 1113.7 hPa | 0 mm | - | - | - |
| 1788498073 | 25.56° C | - | 1113.7 hPa | 0 mm | - | - | - |
| 1788497767 | 25.56° C | - | 1113.7 hPa | 0 mm | - | - | - |
| 1788497462 | 25.56° C | - | 1113.6 hPa | 0 mm | - | - | - |
| 1788497156 | 25° C | - | 1113.5 hPa | 0 mm | - | - | - |
| 1788496851 | 25° C | - | 1113.4 hPa | 0 mm | - | - | - |
| 1788496568 | 25° C | - | 1113.5 hPa | 0 mm | - | - | - |
| 1788496240 | 25° C | - | 1113.5 hPa | 0 mm | - | - | - |
| 1788495935 | 25° C | - | 1113.6 hPa | 0 mm | - | - | - |
| 1788495629 | 25° C | - | 1113.5 hPa | 0 mm | - | - | - |
| 1788495324 | 25.56° C | - | 1113.5 hPa | 0 mm | - | - | - |
| 1788495018 | 25.56° C | - | 1113.5 hPa | 0 mm | - | - | - |
* Rain latest hour (hover to see other rain measurements)
** Current wind speed in m/s (hover to see current wind gust speed)